User: anonymous   Login
Location: Lawrence Hall of Science
(37.8785°N, 122.2415°W)
Time: 03:20:21
(UTC-07:00)
Language:

Cosmos 2098 Rocket - Orbit

View from above orbital plane
View from above orbital plane
View from above satellite
View from above satellite

Ground track
Ground track

The orbit data is extracted from the following two-line orbital elements,

1 20775U 90078B   14296.08031008  .00010148  00000-0  54142-3 0  5424
2 20775 082.9295 116.6776 0635292 066.2612 066.8125 14.19584879210740
Epoch (UTC): 23 October 2014 01:55:38
Eccentricity: 0.0635292
inclination: 82.9295°
perigee height: 369 km
apogee height: 1284 km
right ascension of ascending node: 116.6776°
argument of perigee: 66.2612°
revolutions per day: 14.19584879
mean anomaly at epoch: 66.8125°
orbit number at epoch: 21074

The dashed part of the orbit path shows where the satellite is in the earth's shadow,  

DLR